Regional Weather Roundup
Issued by NWS

Home | Current Version | Previous Version | Graphics & Text | Print | Product List | Glossary On
Versions: 1 2 3 4 5 6 7 8 9 10 11 12 13 14 15 16 17 18 19 20 21 22 23 24 25 26 27 28 29 30 31 32 33 34 35 36 37 38 39 40 41 42 43 44 45 46 47 48 49 50
000
ASUS45 KABQ 290010
RWRNM
NEW MEXICO REGIONAL WEATHER ROUNDUP
NATIONAL WEATHER SERVICE ALBUQUERQUE NM
600 PM MDT TUE JUL 28 2015

NOTE: "FAIR" MEANS FEW OR NO CLOUDS BELOW 12,000 FEET AGL WITH NO
       SIGNIFICANT WEATHER OR OBSTRUCTIONS TO VISION.

      THIS PRODUCT IS RELEASED AS TWO VERSIONS.  ONE VERSION NEAR
      THE TOP OF THE HOUR CONTAINING PRELIMINARY DATA FROM ALBUQUERQUE
      AND OTHER STATIONS.  A FINAL VERSION WITH ADDITIONAL DATA IS
      ISSUED ABOUT 10 MINUTES AFTER THE HOUR.

NMZ501-503-504-510>518-290100-
NORTHWEST PLATEAU/NORTHCENTRAL MOUNTAINS

CITY           SKY/WX    TMP DP  RH WIND       PRES   REMARKS
FARMINGTON     SUNNY     91  24   9 W14       30.08F
6HR MIN TEMP:  84; 6HR MAX TEMP:  93;

LOS ALAMOS     PTSUNNY   82  42  24 E3        30.23F
SANTA FE       CLOUDY    87  38  17 S9        30.15R
6HR MIN TEMP:  84; 6HR MAX TEMP:  93;

TAOS           MOSUNNY   82  37  20 NW7       30.22S
ANGEL FIRE     LGT RAIN  65  49  56 SE5G16    30.38R

$$
NMZ402-403-502-505>509-290100-
WESTCENTRAL MOUNTAINS/SOUTHWEST MOUNTAINS

CITY           SKY/WX    TMP DP  RH WIND       PRES   REMARKS
GALLUP         MOSUNNY   85  36  17 VRB5G18   30.17F
6HR MIN TEMP:  81; 6HR MAX TEMP:  89;

GRANTS         CLOUDY    71  58  64 SW8       30.23F
SILVER CITY      N/A     82  50  32 E5        30.11F

$$
NMZ407-409-411-412-290100-
SOUTHERN DESERTS

CITY           SKY/WX    TMP DP  RH WIND       PRES   REMARKS
LORDSBURG      FAIR      90  50  25 SW8       29.99F
DEMING         PTSUNNY   91  53  27 W17G26    29.99R
6HR MIN TEMP:  88; 6HR MAX TEMP:  98;

LAS CRUCES     MOSUNNY   88  52  29 W13       30.01R
HOLLOMAN AFB   RAIN      94  53  25 N14       29.99R
ALAMOGORDO     CLOUDY    84  57  39 NE16      30.01R
T OR C         LGT RAIN  71  60  68 CALM      30.08R
6HR MIN TEMP:  72; 6HR MAX TEMP:  95; 6HR PCP:  0.15;


$$
NMZ519>523-290100-
CENTRAL VALLEYS/CENTRAL HIGHLANDS

CITY           SKY/WX    TMP DP  RH WIND       PRES   REMARKS
ALBUQUERQUE    CLOUDY    91  43  18 SW5       30.06F
6HR MIN TEMP:  86; 6HR MAX TEMP:  94;

DOUBLE EAGLE   CLOUDY    88  46  23 SW14      30.12S
MORIARTY ARPT  LGT RAIN  70  54  56 S15       30.19F
6HR MIN TEMP:  68; 6HR MAX TEMP:  92; 6HR PCP:  0.01;

CLINES CORNERS CLOUDY    68  55  63 E14       30.29R
6HR MIN TEMP:  68; 6HR MAX TEMP:  90; 6HR PCP: TRACE;

BELEN          MOCLDY    87  42  21 W15       30.07F
6HR MIN TEMP:  86; 6HR MAX TEMP:  94;

SOCORRO        LGT RAIN  77  61  57 SW10      30.09R
6HR MIN TEMP:  73; 6HR MAX TEMP:  98; 6HR PCP:  0.05;


$$
NMZ524>526-539-540-290100-
SOUTHCENTRAL MOUNTAINS

CITY           SKY/WX    TMP DP  RH WIND       PRES   REMARKS
RUIDOSO          N/A    N/A N/A N/A MISG        N/A

$$
NMZ527>531-290100-
NORTHEAST HIGHLANDS/NORTHEAST PLAINS

CITY           SKY/WX    TMP DP  RH WIND       PRES   REMARKS
LAS VEGAS      LGT RAIN  65  55  70 E14       30.31R
6HR MIN TEMP:  65; 6HR MAX TEMP:  87; 6HR PCP: TRACE;

RATON          CLOUDY    73  53  49 NE8       30.24R
6HR MIN TEMP:  70; 6HR MAX TEMP:  88; 6HR PCP: TRACE;

CLAYTON        CLOUDY    75  54  47 N6        30.15R
6HR MIN TEMP:  75; 6HR MAX TEMP:  85;


$$
NMZ532>537-290100-
EASTCENTRAL PLAINS

CITY           SKY/WX    TMP DP  RH WIND       PRES   REMARKS
TUCUMCARI      TSTM      71  63  75 VRB5G18   30.10R
6HR MIN TEMP:  69; 6HR MAX TEMP:  99; 6HR PCP:  0.05;

CANNON AFB     PTSUNNY   86  61  42 W20G31    30.03R
6HR MIN TEMP:  76; 6HR MAX TEMP:  97;

CLOVIS AIRPORT MOSUNNY   90  57  33 S12       30.02R

$$
NMZ028-029-538-290100-
SOUTHEAST PLAINS

CITY           SKY/WX    TMP DP  RH WIND       PRES   REMARKS
ROSWELL        CLOUDY    86  60  41 N20G28    29.96F THUNDER
6HR MIN TEMP:  83; 6HR MAX TEMP: 104; 6HR PCP: TRACE;

ARTESIA        MOSUNNY   95  54  24 NW15      29.94S
CARLSBAD       MOSUNNY  103  48  15 E15       29.88S HX  99
6HR MIN TEMP:  98; 6HR MAX TEMP: 105;

HOBBS          MOSUNNY   99  54  22 SE13      29.94F HX  96


$$



USA.gov is the U.S. government's official web portal to all federal, state and local government web resources and services.